Wind_Speed
6 5 3 4 6 8 11 15 17 17 17 17 17 18 17 13 10 7 5 4 4 5 5 4 3 5 5 4 3 2 1 3 3 5 6 6 7 8 8 8 9 10 11 11
8 6 4 4 6 8 11 14 16 17 17 17 17 16 14 12 9 6 4 5 6 7 6 5 5 5 5 4 3 2 0 2 3 4 5 6 7 7 8 9 9 10 10 11
9 7 6 7 7 9 11 13 14 17 17 16 16 15 13 9 7 5 5 5 6 6 6 6 7 5 4 3 2 1 0 1 3 4 5 6 7 7 8 8 9 10 11 11
9 7 7 8 8 11 11 11 13 14 14 14 12 11 8 7 5 3 5 6 7 7 7 7 7 5 4 3 3 2 1 2 3 4 5 6 7 7 8 9 10 11 12 13
8 7 7 8 9 11 12 12 11 12 12 10 8 6 7 6 4 3 5 5 6 6 6 7 6 5 4 3 3 3 3 3 4 4 5 6 7 8 8 9 10 11 12 14
8 8 9 10 10 10 11 12 11 11 9 7 5 4 6 6 6 5 5 5 6 6 6 6 5 4 3 3 3 4 4 4 4 5 6 6 7 8 9 10 11 13 14 15
9 8 9 9 10 10 10 10 11 9 8 8 5 4 6 5 6 5 4 3 5 5 5 5 4 3 2 3 3 3 3 4 5 6 7 7 8 9 10 11 12 14 15 17
11 9 9 10 10 10 10 10 10 10 10 9 6 4 4 5 6 5 4 4 4 4 4 4 3 2 2 2 3 3 4 4 5 6 7 8 9 10 11 12 14 15 17 19
13 11 11 11 10 10 10 10 10 10 10 10 6 2 3 3 4 4 4 4 4 3 3 3 2 2 2 2 3 3 4 5 6 7 8 9 10 11 12 14 15 17 19 21
14 13 12 12 12 11 11 10 10 12 12 10 7 4 3 1 2 3 4 3 3 2 3 3 2 2 2 3 3 4 5 6 7 8 9 10 11 12 14 15 17 19 21 23
17 15 13 14 14 13 12 13 13 14 14 13 11 7 5 4 2 2 3 3 3 2 3 2 2 2 3 3 4 5 6 7 8 9 10 11 12 14 15 17 19 21 23 25
18 16 15 15 14 14 14 14 14 15 15 14 12 10 8 6 5 4 3 2 2 2 2 2 2 3 4 5 6 7 8 8 9 10 11 13 14 15 17 18 21 23 25 26
16 17 17 16 15 15 15 14 15 14 14 14 13 12 10 8 7 7 6 4 3 3 3 3 4 5 6 7 8 8 9 9 11 12 13 15 16 17 19 21 23 25 26 28
17 17 18 17 15 15 15 15 16 15 14 13 12 12 12 10 9 8 8 6 4 4 5 6 6 7 8 8 9 10 10 11 13 14 16 17 18 20 21 23 25 27 29 30
17 18 18 17 17 17 16 16 17 17 16 15 14 15 14 13 12 10 9 7 6 6 7 8 8 9 9 10 11 12 13 14 15 17 18 19 21 22 24 25 27 29 30 32
19 19 18 17 17 17 17 17 18 17 17 18 16 15 14 14 12 11 10 9 8 8 8 9 10 11 12 12 13 14 15 16 17 19 20 21 23 25 26 28 29 30 32 33
22 21 19 18 18 17 16 16 17 18 18 19 18 16 15 14 13 12 11 11 10 10 10 11 12 14 14 15 15 16 17 18 19 21 22 24 25 27 28 29 31 32 33 34
22 21 21 20 20 18 15 17 17 18 19 19 19 17 16 16 15 13 12 12 12 12 12 13 14 15 16 17 18 19 20 21 22 23 24 25 27 28 29 31 32 34 35 36
23 23 22 21 20 18 18 18 18 19 21 20 19 18 17 16 16 14 13 13 13 14 14 14 15 16 18 19 20 21 22 23 24 26 26 27 29 30 32 33 34 35 37 38
24 24 22 22 21 20 18 19 19 19 22 21 20 19 19 18 17 15 15 15 15 16 17 17 17 18 20 21 22 23 23 25 26 27 28 29 31 32 34 35 35 37 38 39
24 25 24 22 21 20 19 18 20 21 20 20 21 21 20 19 18 18 18 18 18 18 19 19 20 20 22 23 24 25 26 27 28 29 30 32 33 34 35 36 37 39 39 40
25 25 24 23 22 21 20 19 20 21 20 20 20 20 21 21 20 19 19 18 18 20 20 21 22 23 24 25 26 27 28 29 30 31 32 33 35 36 37 38 39 40 40 41
24 24 24 24 24 22 21 20 21 22 21 20 20 22 22 21 21 21 21 21 20 22 23 24 25 25 26 27 28 29 30 31 32 32 33 35 36 37 38 40 41 41 41 42
23 24 24 23 22 22 23 22 22 22 21 21 22 22 22 22 22 21 22 23 23 23 24 26 27 28 29 29 30 31 32 33 34 35 36 37 38 39 40 41 42 42 42 43
22 23 22 23 23 21 21 22 23 22 21 22 23 23 22 23 23 23 23 24 25 26 27 28 29 29 30 31 32 33 34 35 36 37 38 39 40 40 41 42 43 43 44 44
23 23 24 24 24 23 23 23 23 23 22 23 24 24 23 22 23 24 25 26 27 28 29 30 30 31 32 33 34 35 36 37 38 39 40 41 41 42 43 44 44 44 45 45
Wind_Direction
261 262 297 338 350 343 334 328 326 326 327 326 330 333 337 343 346 351 22 53 81 116 124 125 159 178 169 175 174 184 252 297 310 314 314 321 322 318 314 313 313 311 310 307
261 260 293 316 335 329 322 319 323 326 328 328 327 329 334 340 353 14 62 70 76 90 96 102 114 130 137 148 150 169 248 324 325 319 318 321 323 321 317 316 317 315 311 310
268 273 288 303 306 304 307 315 322 325 327 326 325 324 329 344 353 24 65 78 85 94 98 103 109 110 103 103 116 133 67 0 338 332 334 336 334 330 329 328 326 327 325 320
272 276 294 300 297 299 305 312 321 326 324 326 330 333 336 347 3 34 63 80 99 104 105 108 110 112 104 91 75 67 39 12 357 351 347 345 342 341 338 335 334 334 333 329
279 280 293 291 295 293 297 302 312 320 323 321 340 3 17 30 43 51 70 75 93 100 103 105 109 111 103 75 46 34 29 10 2 357 354 353 348 344 343 341 340 339 336 333
276 281 289 292 292 294 293 294 304 316 322 314 331 8 32 43 54 57 71 74 95 99 100 103 100 98 79 44 28 17 11 5 3 3 3 358 351 347 345 344 343 341 338 336
271 275 284 294 290 288 286 291 296 304 308 312 323 356 17 40 52 61 81 87 103 103 100 95 89 85 67 45 26 15 8 2 3 4 2 357 352 349 347 345 343 340 338 337
274 281 291 295 296 295 284 284 292 299 304 308 315 355 11 32 48 54 81 104 99 97 95 94 89 76 58 36 17 7 6 6 4 358 354 353 350 347 345 343 341 341 340 338
282 290 289 287 284 286 288 280 286 290 293 300 303 340 349 12 45 51 83 104 88 84 91 93 83 71 51 28 12 6 360 359 356 350 347 347 345 344 342 340 340 339 338 337
276 279 280 278 275 282 279 274 272 275 279 286 284 292 321 339 9 58 77 89 80 67 72 78 67 57 37 14 0 351 347 348 347 346 345 343 341 339 337 337 336 336 335 334
270 274 274 274 276 279 275 272 267 266 269 276 273 282 284 283 315 7 51 81 79 69 66 60 44 25 8 355 344 339 338 337 337 338 336 334 334 333 332 332 332 332 331 331
266 270 267 268 273 274 270 273 264 261 263 266 267 274 278 290 299 311 335 7 39 48 35 2 348 341 336 331 329 331 330 327 328 328 326 325 325 326 327 326 327 328 328 329
257 265 268 268 270 271 270 269 265 262 256 258 262 269 271 285 299 303 312 316 336 357 347 329 321 321 320 319 318 319 319 319 319 318 319 319 319 320 322 323 324 325 325 326
256 266 271 273 275 271 267 268 265 261 255 256 259 266 273 282 289 296 300 299 311 322 321 316 314 312 311 308 307 309 310 309 309 311 313 314 315 316 318 320 321 321 322 323
260 267 273 275 277 273 264 260 259 253 250 253 255 262 270 277 282 289 296 299 304 305 306 307 308 304 302 301 302 303 304 305 306 308 310 311 312 313 315 317 318 319 320 321
266 267 269 271 273 270 263 258 249 245 247 253 256 258 267 276 281 285 291 295 296 296 296 297 296 295 295 296 298 299 300 303 306 307 308 308 309 310 312 315 317 318 319 320
268 268 269 271 271 268 265 257 248 245 246 251 254 258 265 276 279 278 284 289 290 290 289 289 290 290 291 291 293 295 297 300 302 304 305 306 307 309 311 313 315 316 317 319
267 267 270 270 270 264 259 250 245 244 246 250 255 260 266 269 273 273 283 286 285 285 288 288 288 286 286 286 288 290 293 296 298 301 303 305 306 307 309 311 312 313 315 317
267 266 267 269 269 262 256 250 247 246 246 251 254 257 263 264 267 267 273 278 281 282 282 284 286 286 285 285 285 288 291 293 296 299 301 303 304 305 307 309 311 312 314 316
262 261 264 268 266 263 259 253 254 252 251 254 259 261 257 261 263 267 271 275 280 282 282 283 284 285 285 285 286 287 289 291 293 296 298 300 303 305 308 310 311 312 313 314
260 259 261 266 265 264 262 257 258 257 260 260 263 267 265 263 267 271 272 276 279 280 282 284 284 285 286 286 287 288 290 291 293 295 297 299 302 304 307 309 310 311 312 313
263 262 262 263 264 265 266 261 260 262 266 268 269 270 269 268 269 276 279 280 282 282 284 285 285 286 286 286 287 288 290 291 293 296 297 299 302 304 305 307 309 310 310 312
263 263 263 267 268 269 265 270 271 266 266 268 271 274 275 273 272 275 279 281 283 285 285 285 285 287 287 287 288 289 291 293 294 296 298 300 302 304 305 307 309 309 310 311
263 263 266 270 274 274 273 273 270 270 273 276 274 274 276 276 274 275 277 280 286 288 287 287 288 288 288 288 288 290 292 293 294 296 297 299 301 303 305 306 308 308 309 310
264 266 270 273 276 280 278 276 275 276 275 278 281 280 278 278 281 281 282 284 285 286 287 288 288 288 288 287 288 290 292 293 295 296 297 299 300 302 304 306 307 307 308 309
262 266 270 273 276 279 279 279 280 279 278 280 281 281 279 281 284 285 285 286 285 286 286 286 286 287 286 287 288 289 291 293 295 295 296 298 299 301 303 304 305 306 307 307
Height
5896 5896 5894 5893 5891 5890 5888 5886 5885 5883 5881 5879 5876 5874 5871 5867 5863 5861 5859 5858 5858 5858 5861 5862 5864 5866 5867 5869 5869 5870 5871 5871 5871 5871 5871 5871 5870 5869 5868 5867 5866 5865 5864 5863
5894 5893 5892 5890 5889 5888 5887 5885 5883 5881 5879 5876 5874 5872 5870 5867 5864 5862 5860 5860 5860 5860 5861 5862 5863 5865 5866 5867 5869 5870 5870 5870 5870 5870 5870 5869 5868 5867 5866 5865 5864 5862 5861 5860
5890 5891 5889 5888 5887 5886 5885 5884 5882 5880 5877 5875 5873 5871 5869 5867 5864 5862 5861 5861 5861 5861 5862 5862 5863 5865 5866 5867 5868 5868 5868 5869 5868 5868 5868 5867 5866 5865 5864 5862 5861 5860 5858 5856
5888 5888 5887 5887 5886 5884 5883 5882 5881 5879 5877 5874 5873 5870 5868 5865 5864 5863 5862 5862 5861 5862 5863 5863 5864 5865 5866 5867 5867 5867 5868 5867 5867 5867 5866 5865 5864 5863 5862 5860 5859 5857 5856 5854
5886 5885 5885 5884 5884 5882 5880 5880 5879 5878 5876 5874 5872 5870 5868 5865 5864 5862 5861 5862 5862 5862 5862 5863 5864 5865 5866 5866 5866 5866 5866 5866 5866 5865 5864 5863 5862 5861 5860 5858 5857 5855 5853 5851
5884 5883 5882 5881 5881 5880 5878 5877 5877 5876 5874 5873 5871 5870 5868 5865 5864 5863 5862 5862 5862 5863 5863 5863 5864 5865 5865 5866 5866 5866 5865 5865 5864 5863 5862 5861 5860 5859 5857 5856 5854 5853 5851 5849
5881 5881 5880 5879 5878 5877 5876 5876 5874 5873 5872 5871 5870 5868 5868 5865 5864 5863 5863 5863 5863 5863 5864 5864 5864 5864 5865 5865 5865 5865 5864 5863 5862 5861 5860 5859 5858 5857 5855 5854 5852 5850 5848 5845
5878 5878 5877 5876 5876 5875 5874 5873 5873 5871 5870 5869 5869 5867 5867 5865 5863 5863 5862 5863 5863 5863 5864 5864 5864 5864 5864 5864 5864 5863 5863 5862 5860 5859 5858 5857 5856 5854 5853 5851 5849 5847 5844 5842
5874 5875 5875 5874 5873 5872 5871 5871 5870 5869 5868 5868 5867 5867 5866 5864 5863 5862 5862 5863 5863 5863 5863 5863 5863 5863 5862 5862 5862 5861 5861 5860 5859 5858 5856 5855 5853 5852 5850 5848 5846 5843 5841 5838
5870 5871 5871 5870 5870 5869 5869 5868 5868 5867 5865 5865 5866 5865 5865 5863 5863 5862 5862 5861 5862 5862 5861 5861 5861 5861 5861 5860 5860 5859 5859 5858 5856 5855 5854 5853 5851 5849 5847 5845 5842 5839 5836 5833
5866 5867 5868 5867 5867 5866 5866 5865 5864 5863 5863 5863 5862 5865 5863 5862 5862 5861 5861 5860 5860 5860 5860 5860 5860 5860 5859 5859 5858 5857 5856 5855 5854 5853 5851 5850 5848 5846 5844 5841 5839 5836 5832 5829
5861 5862 5862 5863 5863 5862 5861 5861 5860 5861 5860 5860 5859 5863 5860 5860 5859 5859 5859 5859 5858 5858 5858 5858 5858 5857 5857 5857 5856 5855 5854 5853 5852 5850 5849 5847 5845 5843 5841 5838 5835 5832 5828 5824
5857 5857 5858 5858 5860 5859 5858 5857 5856 5856 5856 5856 5856 5859 5857 5857 5857 5857 5857 5856 5856 5856 5855 5855 5855 5855 5854 5854 5853 5852 5851 5850 5849 5848 5846 5844 5842 5840 5837 5834 5831 5827 5823 5819
5852 5853 5854 5855 5854 5854 5853 5853 5852 5852 5852 5852 5853 5854 5853 5853 5854 5854 5854 5853 5853 5853 5852 5852 5852 5852 5851 5851 5850 5849 5849 5848 5846 5845 5843 5840 5838 5835 5832 5829 5825 5822 5818 5813
5847 5848 5848 5849 5849 5849 5848 5848 5848 5848 5848 5848 5849 5849 5850 5850 5850 5850 5850 5850 5850 5849 5849 5849 5848 5848 5848 5848 5847 5846 5845 5844 5842 5840 5838 5836 5833 5830 5827 5824 5820 5816 5812 5807
5843 5843 5844 5844 5844 5843 5843 5843 5843 5843 5843 5843 5843 5844 5845 5845 5846 5846 5846 5846 5846 5846 5846 5845 5845 5845 5844 5844 5843 5842 5841 5839 5838 5835 5833 5831 5828 5825 5822 5818 5814 5810 5805 5800
5838 5839 5839 5839 5839 5838 5839 5839 5838 5838 5838 5839 5839 5841 5840 5841 5841 5841 5842 5842 5842 5842 5842 5841 5841 5840 5840 5839 5838 5837 5836 5834 5832 5830 5828 5825 5822 5819 5815 5811 5807 5803 5798 5793
5833 5833 5833 5833 5834 5834 5837 5834 5834 5833 5833 5833 5834 5835 5835 5836 5837 5837 5838 5838 5838 5838 5838 5837 5836 5836 5835 5834 5833 5832 5830 5828 5826 5824 5821 5819 5815 5812 5808 5804 5800 5795 5791 5785
5826 5827 5827 5827 5827 5828 5829 5829 5829 5829 5828 5829 5829 5830 5830 5831 5832 5833 5833 5833 5833 5833 5833 5833 5832 5831 5830 5828 5827 5826 5824 5822 5820 5817 5814 5811 5808 5805 5801 5797 5792 5787 5782 5777
5820 5820 5821 5821 5821 5822 5824 5824 5824 5825 5823 5824 5825 5825 5825 5826 5827 5828 5828 5828 5828 5828 5828 5827 5826 5825 5824 5822 5821 5819 5817 5815 5813 5810 5807 5804 5800 5797 5793 5788 5784 5779 5774 5768
5813 5814 5815 5815 5815 5816 5818 5818 5819 5820 5820 5819 5819 5819 5819 5820 5822 5823 5822 5822 5822 5822 5822 5821 5820 5818 5817 5815 5813 5812 5810 5807 5805 5802 5799 5796 5792 5788 5784 5779 5774 5770 5764 5759
5806 5808 5809 5809 5810 5812 5811 5812 5813 5814 5814 5814 5814 5814 5814 5815 5816 5816 5816 5816 5816 5816 5815 5814 5813 5811 5810 5808 5806 5804 5802 5799 5796 5794 5790 5787 5783 5778 5774 5770 5765 5760 5755 5750
5799 5801 5802 5803 5805 5804 5804 5805 5806 5807 5808 5808 5808 5808 5809 5809 5809 5809 5809 5809 5809 5808 5808 5807 5805 5804 5802 5800 5798 5796 5793 5790 5787 5784 5781 5777 5773 5769 5765 5760 5755 5750 5745 5740
5795 5794 5795 5796 5796 5797 5797 5798 5799 5801 5801 5802 5801 5802 5802 5802 5802 5802 5802 5802 5801 5800 5800 5798 5797 5795 5794 5791 5789 5786 5784 5781 5778 5775 5771 5767 5763 5759 5755 5750 5745 5740 5735 5729
5789 5788 5788 5789 5790 5791 5791 5792 5793 5794 5795 5795 5794 5794 5794 5794 5794 5794 5794 5794 5793 5792 5792 5790 5788 5787 5785 5782 5780 5777 5774 5771 5768 5765 5761 5757 5753 5749 5744 5740 5734 5729 5724 5718
5783 5783 5783 5783 5784 5785 5786 5786 5787 5787 5788 5788 5787 5787 5787 5786 5786 5786 5786 5785 5784 5783 5782 5781 5779 5777 5774 5772 5770 5767 5764 5761 5758 5754 5750 5746 5742 5738 5733 5728 5724 5718 5713 5708